When you browse on this site, cookies collect data to enhance your experience and personalize the content and advertising you see.
Visit our Privacy Policy to learn more. By continuing to use the site, you agree to this use of cookies and data.
  • Em Portugal
  • Lista de países
  • Para 7 dias
  • Temperatura da água
  • Mapas de satélite
  • Mapa do tempo
  • Widgets de tempo
  • user-avatar
    Iniciar Sessão

    Previsão horária em Cierniki

    Hoje, 19 Fevereiro, Terça-feira

    Tempo Temperatura Precipitação Vento Pressão Humidade
    00:00 +3°C° 0 mm 2 m/s 747 mmHg 85%
    01:00 +3°C° 0 mm 2 m/s 747 mmHg 87%
    02:00 +3°C° 0 mm 2 m/s 746 mmHg 87%
    03:00 +3°C° 0 mm 2 m/s 746 mmHg 87%
    04:00 +2°C° 0 mm 3 m/s 745 mmHg 87%
    05:00 +2°C° 0 mm 3 m/s 745 mmHg 87%
    06:00 +2°C° 0 mm 3 m/s 745 mmHg 87%
    07:00 +2°C° 0 mm 3 m/s 744 mmHg 87%
    08:00 +3°C° 0 mm 4 m/s 744 mmHg 84%
    09:00 +4°C° 0 mm 4 m/s 744 mmHg 81%
    10:00 +5°C° 0 mm 5 m/s 744 mmHg 79%
    11:00 +6°C° 0 mm 5 m/s 744 mmHg 77%
    12:00 +7°C° 0 mm 5 m/s 744 mmHg 75%
    13:00 +8°C° 0 mm 5 m/s 744 mmHg 73%
    14:00 +7°C° 0.3 mm 5 m/s 744 mmHg 75%
    15:00 +7°C° 0.3 mm 5 m/s 744 mmHg 78%
    16:00 +6°C° 0.3 mm 5 m/s 744 mmHg 80%
    17:00 +6°C° 0.1 mm 5 m/s 744 mmHg 80%
    18:00 +5°C° 0.1 mm 4 m/s 744 mmHg 80%
    19:00 +5°C° 0.1 mm 4 m/s 744 mmHg 80%
    20:00 +5°C° 0.2 mm 5 m/s 744 mmHg 80%
    21:00 +5°C° 0.2 mm 5 m/s 744 mmHg 81%
    22:00 +5°C° 0.2 mm 5 m/s 744 mmHg 81%
    23:00 +3°C° 0.1 mm 6 m/s 744 mmHg 82%

    Amanhã, 20 Fevereiro, Quarta-feira

    Tempo Temperatura Precipitação Vento Pressão Humidade
    00:00 +3°C° 0.1 mm 6 m/s 745 mmHg 82%
    01:00 +3°C° 0.1 mm 6 m/s 745 mmHg 82%
    02:00 +2°C° 0.1 mm 6 m/s 745 mmHg 82%
    03:00 +2°C° 0.1 mm 6 m/s 745 mmHg 82%
    04:00 +2°C° 0.1 mm 7 m/s 745 mmHg 82%
    05:00 +2°C° 0.1 mm 7 m/s 745 mmHg 82%
    06:00 +2°C° 0.1 mm 7 m/s 745 mmHg 81%
    07:00 +2°C° 0.1 mm 7 m/s 746 mmHg 80%
    08:00 +2°C° 0.1 mm 6 m/s 746 mmHg 79%
    09:00 +2°C° 0.1 mm 6 m/s 747 mmHg 78%
    10:00 +2°C° 0.1 mm 6 m/s 747 mmHg 77%
    11:00 +3°C° 0 mm 6 m/s 748 mmHg 75%
    12:00 +3°C° 0 mm 6 m/s 748 mmHg 74%
    13:00 +3°C° 0 mm 6 m/s 749 mmHg 73%
    14:00 +3°C° 0 mm 6 m/s 749 mmHg 73%
    15:00 +3°C° 0 mm 6 m/s 749 mmHg 74%
    16:00 +3°C° 0 mm 5 m/s 750 mmHg 74%
    17:00 +3°C° 0 mm 5 m/s 750 mmHg 78%
    18:00 +4°C° 0 mm 4 m/s 750 mmHg 82%
    19:00 +3°C° 0 mm 3 m/s 751 mmHg 86%
    20:00 +3°C° 0 mm 3 m/s 751 mmHg 88%
    21:00 +2°C° 0 mm 3 m/s 751 mmHg 91%
    22:00 +3°C° 0 mm 2 m/s 751 mmHg 93%
    23:00 +3°C° 0.2 mm 2 m/s 751 mmHg 94%

    Depois de amanhã, 21 Fevereiro, Quinta-feira

    Tempo Temperatura Precipitação Vento Pressão Humidade
    00:00 +4°C° 0.2 mm 2 m/s 751 mmHg 94%
    01:00 +4°C° 0.2 mm 2 m/s 751 mmHg 95%
    02:00 +3°C° 0.2 mm 3 m/s 751 mmHg 95%
    03:00 +4°C° 0.2 mm 3 m/s 750 mmHg 95%
    04:00 +4°C° 0.2 mm 3 m/s 750 mmHg 94%
    05:00 +4°C° 0.7 mm 3 m/s 750 mmHg 94%
    06:00 +4°C° 0.7 mm 4 m/s 750 mmHg 94%
    07:00 +4°C° 0.7 mm 4 m/s 750 mmHg 94%
    08:00 +4°C° 0.2 mm 4 m/s 750 mmHg 93%
    09:00 +5°C° 0.2 mm 4 m/s 749 mmHg 91%
    10:00 +5°C° 0.2 mm 4 m/s 749 mmHg 90%
    11:00 +5°C° 0.7 mm 4 m/s 749 mmHg 90%
    12:00 +5°C° 0.7 mm 4 m/s 749 mmHg 90%
    13:00 +5°C° 0.7 mm 4 m/s 749 mmHg 90%
    14:00 +5°C° 0.2 mm 4 m/s 749 mmHg 90%
    15:00 +5°C° 0.2 mm 4 m/s 749 mmHg 91%
    16:00 +5°C° 0.2 mm 4 m/s 749 mmHg 92%
    17:00 +5°C° 0.2 mm 5 m/s 750 mmHg 92%
    18:00 +5°C° 0.2 mm 5 m/s 750 mmHg 92%
    19:00 +5°C° 0.2 mm 5 m/s 750 mmHg 92%
    20:00 +5°C° 0.2 mm 5 m/s 751 mmHg 91%
    21:00 +5°C° 0.2 mm 5 m/s 752 mmHg 91%
    22:00 +4°C° 0.2 mm 4 m/s 752 mmHg 90%
    23:00 +3°C° 0 mm 4 m/s 753 mmHg 88%

    22 Fevereiro, Sexta-feira

    Tempo Temperatura Precipitação Vento Pressão Humidade
    00:00 +1°C° 0 mm 4 m/s 754 mmHg 85%
    01:00 0°C° 0 mm 4 m/s 755 mmHg 82%
    02:00 -1°C° 0 mm 4 m/s 756 mmHg 80%
    03:00 -1°C° 0 mm 4 m/s 757 mmHg 78%
    04:00 -2°C° 0 mm 4 m/s 758 mmHg 76%
    05:00 -2°C° 0 mm 4 m/s 759 mmHg 75%
    06:00 -1°C° 0 mm 3 m/s 760 mmHg 75%
    07:00 -2°C° 0 mm 3 m/s 761 mmHg 74%
    08:00 -1°C° 0 mm 3 m/s 761 mmHg 70%
    09:00 -1°C° 0 mm 3 m/s 762 mmHg 66%
    10:00 -1°C° 0 mm 3 m/s 763 mmHg 62%
    11:00 0°C° 0 mm 3 m/s 764 mmHg 59%
    12:00 +1°C° 0 mm 3 m/s 764 mmHg 56%
    13:00 +2°C° 0 mm 2 m/s 764 mmHg 53%
    14:00 +2°C° 0 mm 2 m/s 765 mmHg 53%
    15:00 +2°C° 0 mm 2 m/s 765 mmHg 53%
    16:00 +2°C° 0 mm 2 m/s 765 mmHg 53%
    17:00 +1°C° 0 mm 2 m/s 765 mmHg 58%
    18:00 -1°C° 0 mm 2 m/s 766 mmHg 63%
    19:00 0°C° 0 mm 1 m/s 766 mmHg 68%
    20:00 0°C° 0 mm 1 m/s 766 mmHg 68%
    21:00 -1°C° 0 mm 1 m/s 766 mmHg 68%
    22:00 -1°C° 0 mm 1 m/s 766 mmHg 67%
    23:00 -1°C° 0 mm 1 m/s 766 mmHg 66%

    23 Fevereiro, Sábado

    Tempo Temperatura Precipitação Vento Pressão Humidade
    00:00 -2°C° 0 mm 0 m/s 766 mmHg 65%
    01:00 -2°C° 0 mm 0 m/s 766 mmHg 64%
    02:00 -2°C° 0 mm 0 m/s 766 mmHg 64%
    03:00 -2°C° 0 mm 0 m/s 766 mmHg 64%
    04:00 -2°C° 0 mm 0 m/s 766 mmHg 63%
    05:00 -2°C° 0 mm 0 m/s 766 mmHg 64%
    06:00 -2°C° 0 mm 0 m/s 766 mmHg 64%
    07:00 -2°C° 0 mm 0 m/s 765 mmHg 64%
    08:00 0°C° 0 mm 1 m/s 765 mmHg 60%
    09:00 +1°C° 0 mm 1 m/s 766 mmHg 56%
    10:00 +2°C° 0 mm 1 m/s 766 mmHg 52%
    11:00 +3°C° 0 mm 1 m/s 765 mmHg 51%
    12:00 +3°C° 0 mm 2 m/s 765 mmHg 49%
    13:00 +4°C° 0 mm 2 m/s 765 mmHg 47%
    14:00 +3°C° 0 mm 2 m/s 764 mmHg 51%
    15:00 +3°C° 0 mm 2 m/s 764 mmHg 55%
    16:00 +2°C° 0 mm 2 m/s 763 mmHg 60%
    17:00 +2°C° 0 mm 2 m/s 763 mmHg 63%
    18:00 +1°C° 0 mm 2 m/s 763 mmHg 67%
    19:00 +2°C° 0 mm 1 m/s 763 mmHg 70%
    20:00 +2°C° 0 mm 1 m/s 763 mmHg 75%
    21:00 +1°C° 0 mm 2 m/s 763 mmHg 79%
    22:00 +1°C° 0 mm 2 m/s 763 mmHg 84%
    23:00 +2°C° 0 mm 1 m/s 763 mmHg 87%

    24 Fevereiro, Domingo

    Tempo Temperatura Precipitação Vento Pressão Humidade
    00:00 +2°C° 0 mm 1 m/s 763 mmHg 89%
    01:00 +1°C° 0 mm 0 m/s 763 mmHg 92%
    02:00 +1°C° 0 mm 0 m/s 763 mmHg 93%
    03:00 +1°C° 0 mm 0 m/s 763 mmHg 94%
    04:00 +1°C° 0 mm 0 m/s 763 mmHg 94%
    05:00 +1°C° 0 mm 0 m/s 763 mmHg 95%
    06:00 +1°C° 0 mm 0 m/s 763 mmHg 95%
    07:00 +2°C° 0 mm 1 m/s 763 mmHg 95%
    08:00 +3°C° 0 mm 1 m/s 764 mmHg 93%
    09:00 +4°C° 0 mm 1 m/s 764 mmHg 90%
    10:00 +4°C° 0 mm 1 m/s 764 mmHg 88%
    11:00 +5°C° 0 mm 1 m/s 764 mmHg 85%
    12:00 +6°C° 0 mm 1 m/s 765 mmHg 82%
    13:00 +6°C° 0 mm 2 m/s 765 mmHg 79%
    14:00 +6°C° 0 mm 2 m/s 764 mmHg 80%
    15:00 +7°C° 0 mm 1 m/s 764 mmHg 81%
    16:00 +7°C° 0 mm 1 m/s 764 mmHg 82%
    17:00 +6°C° 0 mm 1 m/s 764 mmHg 85%
    18:00 +4°C° 0 mm 2 m/s 764 mmHg 88%
    19:00 +4°C° 0 mm 2 m/s 764 mmHg 90%
    20:00 +4°C° 0 mm 2 m/s 763 mmHg 92%
    21:00 +3°C° 0 mm 2 m/s 763 mmHg 93%
    22:00 +3°C° 0 mm 2 m/s 763 mmHg 94%
    23:00 +3°C° 0 mm 2 m/s 763 mmHg 95%
    Mostrar mais